Погода в Каменке

Украина / Житомирская область     50˚31′19″N   27˚18′06″E
темп.,
°C
ветер,
м/с
пор.,
м/с
влажн.,
%
обл.,
%
осадки,
мм/ч
давл.,
гПа
погр.,
м
16 января, сб
сб1623:00−13˚сз4894100 0.1 1014284
02:00−16˚зсз369787 0.1 1015102
05:00−17˚сз3796100 0.1 1015244
08:00−19˚з3698100 0.1 1016134
11:00−16˚з479297 0.1 1018542
14:00−14˚з478999 0.1 1017723
17:00−16˚зюз2395100 0.0 101720
20:00−17˚ююз229788 0.1 101620
17 января, вс
вс1723:00−16˚ю339486 0.0 101633
02:00−13˚ю249691 0.1 101697
05:00−13˚юв129699 0.3 101524
08:00−13˚всв239699 0.6 101642
11:00−12˚св229599 0.1 1017133
14:00−11˚ссв239399 0.1 1018267
17:00−12˚ссв1195100 0.1 101822
20:00−12˚ссз3593100 0.3 1019333
18 января, пн
пн1823:00−15˚сз3592100 0.0 1019188
02:00−18˚сз349783 0.0 102045
05:00−19˚сз349979 0.0 102156
08:00−20˚сз349980 0.0 102257
11:00−17˚сз369476 0.0 1023256
14:00−16˚зсз359273 0.0 1022295
17:00−18˚зсз349462 0.0 102371
20:00−18˚зсз349579 0.0 102380
19 января, вт
вт1923:00−18˚зсз339669 0.0 102349
02:00−18˚з339571 0.0 102343
05:00−18˚з349470 0.0 102255
08:00−17˚зюз239083 0.0 102231
11:00−14˚юз239198 0.0 1022122
14:00−11˚ю239290 0.0 1021148
17:00−12˚ююз349339 0.0 102036
20:00−9˚ююз369653 0.0 1020115
20 января, ср
ср2023:00−7˚ююз479685 0.1 1020153
02:00−6˚юз489493 0.3 1020245
05:00−7˚ююз4890100 0.0 1018156
08:00−6˚ю499199 0.0 1018196
11:00−3˚ююз51092100 0.0 1018393
14:00−1˚ююз5109496 0.1 1017535
17:00−1˚ююз5109795 0.5 1017399
20:00−3˚ююз5109291 0.6 1017254